Time,TemperatureF,DewpointF,PressureIn,WindDirection,WindDirectionDegrees,WindSpeedMPH,WindSpeedGustMPH,Humidity,HourlyPrecipIn,Conditions,Clouds,dailyrainin,SoftwareType,DateUTC
2013-12-06 00:00:00,18.4,12.4,30.32,WNW,290,9.0,9.0,77,0.00,,,0.00,Wunderground v.1.15,2013-12-06 06:00:00,
2013-12-06 00:02:00,18.4,12.4,30.32,WNW,285,9.0,9.0,77,0.00,,,0.00,Wunderground v.1.15,2013-12-06 06:02:00,
2013-12-06 00:04:00,18.4,12.4,30.32,WNW,291,9.0,9.0,77,0.00,,,0.00,Wunderground v.1.15,2013-12-06 06:04:00,
2013-12-06 00:06:00,18.4,12.7,30.32,NW,316,8.0,10.0,78,0.00,,,0.00,Wunderground v.1.15,2013-12-06 06:06:00,
2013-12-06 00:10:00,18.4,12.7,30.32,NW,304,7.0,8.0,78,0.00,,,0.00,Wunderground v.1.15,2013-12-06 06:10:00,
2013-12-06 00:12:00,18.3,12.6,30.31,West,269,7.0,8.0,78,0.00,,,0.00,Wunderground v.1.15,2013-12-06 06:12:00,
2013-12-06 00:14:00,18.3,12.6,30.32,NW,309,7.0,8.0,78,0.00,,,0.00,Wunderground v.1.15,2013-12-06 06:14:00,
2013-12-06 00:16:00,18.3,12.6,30.32,WNW,300,7.0,8.0,78,0.00,,,0.00,Wunderground v.1.15,2013-12-06 06:16:00,
2013-12-06 00:18:00,18.2,12.2,30.32,NW,307,7.0,8.0,77,0.00,,,0.00,Wunderground v.1.15,2013-12-06 06:18:00,
2013-12-06 00:22:00,18.1,12.4,30.32,WNW,288,8.0,9.0,78,0.00,,,0.00,Wunderground v.1.15,2013-12-06 06:22:00,
2013-12-06 00:24:00,18.1,12.4,30.32,West,273,9.0,9.0,78,0.00,,,0.00,Wunderground v.1.15,2013-12-06 06:24:00,
2013-12-06 00:28:00,18.0,12.6,30.31,WNW,285,8.0,9.0,79,0.00,,,0.00,Wunderground v.1.15,2013-12-06 06:28:00,
2013-12-06 00:30:00,18.0,12.6,30.31,NW,317,8.0,10.0,79,0.00,,,0.00,Wunderground v.1.15,2013-12-06 06:30:00,
2013-12-06 00:34:00,17.9,12.5,30.31,WNW,300,7.0,10.0,79,0.00,,,0.00,Wunderground v.1.15,2013-12-06 06:34:00,
2013-12-06 00:36:00,17.8,12.4,30.31,WNW,300,7.0,10.0,79,0.00,,,0.00,Wunderground v.1.15,2013-12-06 06:36:00,
2013-12-06 00:38:00,17.8,12.4,30.31,West,262,7.0,10.0,79,0.00,,,0.00,Wunderground v.1.15,2013-12-06 06:38:00,
2013-12-06 00:40:00,17.7,12.3,30.31,NW,311,7.0,9.0,79,0.00,,,0.00,Wunderground v.1.15,2013-12-06 06:40:00,
2013-12-06 00:42:00,17.7,12.6,30.31,NW,306,6.0,9.0,80,0.00,,,0.00,Wunderground v.1.15,2013-12-06 06:42:00,
2013-12-06 00:46:00,17.7,12.3,30.31,NW,312,7.0,9.0,79,0.00,,,0.00,Wunderground v.1.15,2013-12-06 06:46:00,
2013-12-06 00:48:00,17.7,12.3,30.31,WNW,293,7.0,9.0,79,0.00,,,0.00,Wunderground v.1.15,2013-12-06 06:48:00,
2013-12-06 00:50:00,17.8,12.4,30.32,NW,311,7.0,8.0,79,0.00,,,0.00,Wunderground v.1.15,2013-12-06 06:50:00,
2013-12-06 00:52:00,17.8,12.4,30.32,WNW,293,7.0,8.0,79,0.00,,,0.00,Wunderground v.1.15,2013-12-06 06:52:00,
2013-12-06 00:54:00,17.8,12.7,30.32,West,277,8.0,11.0,80,0.00,,,0.00,Wunderground v.1.15,2013-12-06 06:54:00,
2013-12-06 00:56:00,17.8,12.7,30.32,WNW,297,8.0,11.0,80,0.00,,,0.00,Wunderground v.1.15,2013-12-06 06:56:00,
2013-12-06 01:00:00,17.8,12.4,30.33,West,276,9.0,9.0,79,0.00,,,0.00,Wunderground v.1.15,2013-12-06 07:00:00,
2013-12-06 01:02:00,17.8,12.4,30.33,WNW,288,9.0,9.0,79,0.00,,,0.00,Wunderground v.1.15,2013-12-06 07:02:00,
2013-12-06 01:04:00,17.8,12.4,30.33,NW,311,9.0,11.0,79,0.00,,,0.00,Wunderground v.1.15,2013-12-06 07:04:00,
2013-12-06 01:06:00,17.8,12.4,30.33,West,281,9.0,11.0,79,0.00,,,0.00,Wunderground v.1.15,2013-12-06 07:06:00,
2013-12-06 01:08:00,17.8,12.4,30.32,NW,322,9.0,11.0,79,0.00,,,0.00,Wunderground v.1.15,2013-12-06 07:08:00,
2013-12-06 01:12:00,17.9,12.8,30.32,West,281,9.0,9.0,80,0.00,,,0.00,Wunderground v.1.15,2013-12-06 07:12:00,
2013-12-06 01:14:00,17.9,12.8,30.32,NW,304,9.0,9.0,80,0.00,,,0.00,Wunderground v.1.15,2013-12-06 07:14:00,
2013-12-06 01:18:00,17.8,12.7,30.32,West,278,9.0,9.0,80,0.00,,,0.00,Wunderground v.1.15,2013-12-06 07:18:00,
2013-12-06 01:20:00,17.8,12.7,30.32,WNW,293,9.0,12.0,80,0.00,,,0.00,Wunderground v.1.15,2013-12-06 07:20:00,
2013-12-06 01:24:00,17.7,12.3,30.31,NW,307,10.0,12.0,79,0.00,,,0.00,Wunderground v.1.15,2013-12-06 07:24:00,
2013-12-06 01:26:00,17.7,12.3,30.31,WNW,293,10.0,12.0,79,0.00,,,0.00,Wunderground v.1.15,2013-12-06 07:26:00,
2013-12-06 01:28:00,17.7,12.3,30.32,WNW,294,11.0,13.0,79,0.00,,,0.00,Wunderground v.1.15,2013-12-06 07:28:00,
2013-12-06 01:30:00,17.7,12.6,30.32,NW,315,11.0,11.0,80,0.00,,,0.00,Wunderground v.1.15,2013-12-06 07:30:00,
2013-12-06 01:32:00,17.7,12.3,30.32,NW,311,10.0,11.0,79,0.00,,,0.00,Wunderground v.1.15,2013-12-06 07:32:00,
2013-12-06 01:36:00,17.7,12.6,30.33,WNW,289,10.0,14.0,80,0.00,,,0.00,Wunderground v.1.15,2013-12-06 07:36:00,
2013-12-06 01:40:00,17.7,12.6,30.34,WNW,288,9.0,11.0,80,0.00,,,0.00,Wunderground v.1.15,2013-12-06 07:40:00,
2013-12-06 01:44:00,17.7,12.6,30.33,West,269,8.0,11.0,80,0.00,,,0.00,Wunderground v.1.15,2013-12-06 07:44:00,
2013-12-06 01:46:00,17.6,12.5,30.33,West,281,8.0,11.0,80,0.00,,,0.00,Wunderground v.1.15,2013-12-06 07:46:00,
2013-12-06 01:50:00,17.6,12.5,30.33,NW,309,9.0,9.0,80,0.00,,,0.00,Wunderground v.1.15,2013-12-06 07:50:00,
2013-12-06 01:52:00,17.5,12.4,30.33,WNW,284,8.0,10.0,80,0.00,,,0.00,Wunderground v.1.15,2013-12-06 07:52:00,
2013-12-06 01:54:00,17.5,12.4,30.33,NW,304,8.0,10.0,80,0.00,,,0.00,Wunderground v.1.15,2013-12-06 07:54:00,
2013-12-06 01:56:00,17.5,12.4,30.33,NW,304,8.0,10.0,80,0.00,,,0.00,Wunderground v.1.15,2013-12-06 07:56:00,
2013-12-06 01:58:00,17.5,12.4,30.34,West,278,8.0,10.0,80,0.00,,,0.00,Wunderground v.1.15,2013-12-06 07:58:00,
2013-12-06 02:00:00,17.4,12.3,30.34,WSW,256,9.0,9.0,80,0.00,,,0.00,Wunderground v.1.15,2013-12-06 08:00:00,
2013-12-06 02:02:00,17.4,12.3,30.35,West,281,9.0,9.0,80,0.00,,,0.00,Wunderground v.1.15,2013-12-06 08:02:00,
2013-12-06 02:06:00,17.4,12.6,30.35,WNW,297,8.0,9.0,81,0.00,,,0.00,Wunderground v.1.15,2013-12-06 08:06:00,
2013-12-06 02:08:00,17.4,12.6,30.35,West,277,8.0,9.0,81,0.00,,,0.00,Wunderground v.1.15,2013-12-06 08:08:00,
2013-12-06 02:10:00,17.4,12.6,30.35,WNW,291,8.0,8.0,81,0.00,,,0.00,Wunderground v.1.15,2013-12-06 08:10:00,
2013-12-06 02:14:00,17.3,12.5,30.35,WSW,253,8.0,11.0,81,0.00,,,0.00,Wunderground v.1.15,2013-12-06 08:14:00,
2013-12-06 02:16:00,17.3,12.5,30.36,West,281,8.0,11.0,81,0.00,,,0.00,Wunderground v.1.15,2013-12-06 08:16:00,
2013-12-06 02:18:00,17.2,12.4,30.36,West,278,8.0,11.0,81,0.00,,,0.00,Wunderground v.1.15,2013-12-06 08:18:00,
2013-12-06 02:20:00,17.2,12.4,30.36,WNW,300,8.0,8.0,81,0.00,,,0.00,Wunderground v.1.15,2013-12-06 08:20:00,
2013-12-06 02:22:00,17.1,12.3,30.36,NNW,327,8.0,9.0,81,0.00,,,0.00,Wunderground v.1.15,2013-12-06 08:22:00,
2013-12-06 02:24:00,17.0,12.2,30.36,NW,311,8.0,9.0,81,0.00,,,0.00,Wunderground v.1.15,2013-12-06 08:24:00,
2013-12-06 02:28:00,16.9,12.1,30.36,WNW,297,8.0,9.0,81,0.00,,,0.00,Wunderground v.1.15,2013-12-06 08:28:00,
2013-12-06 02:30:00,16.8,12.0,30.36,WNW,302,8.0,8.0,81,0.00,,,0.00,Wunderground v.1.15,2013-12-06 08:30:00,
2013-12-06 02:34:00,16.7,12.2,30.36,NW,307,8.0,8.0,82,0.00,,,0.00,Wunderground v.1.15,2013-12-06 08:34:00,
2013-12-06 02:36:00,16.6,12.1,30.37,NW,311,8.0,8.0,82,0.00,,,0.00,Wunderground v.1.15,2013-12-06 08:36:00,
2013-12-06 02:40:00,16.5,12.0,30.37,West,277,7.0,8.0,82,0.00,,,0.00,Wunderground v.1.15,2013-12-06 08:40:00,
2013-12-06 02:44:00,16.4,12.1,30.38,West,273,7.0,8.0,83,0.00,,,0.00,Wunderground v.1.15,2013-12-06 08:44:00,
2013-12-06 02:48:00,16.3,12.0,30.37,West,281,7.0,8.0,83,0.00,,,0.00,Wunderground v.1.15,2013-12-06 08:48:00,
2013-12-06 02:50:00,16.3,12.0,30.37,NW,313,8.0,11.0,83,0.00,,,0.00,Wunderground v.1.15,2013-12-06 08:50:00,
2013-12-06 02:52:00,16.3,11.8,30.37,NW,322,8.0,11.0,82,0.00,,,0.00,Wunderground v.1.15,2013-12-06 08:52:00,
2013-12-06 02:54:00,16.2,11.7,30.36,West,281,9.0,11.0,82,0.00,,,0.00,Wunderground v.1.15,2013-12-06 08:54:00,
2013-12-06 02:56:00,16.1,11.8,30.37,NW,309,9.0,11.0,83,0.00,,,0.00,Wunderground v.1.15,2013-12-06 08:56:00,
2013-12-06 03:00:00,16.0,11.7,30.36,West,274,8.0,8.0,83,0.00,,,0.00,Wunderground v.1.15,2013-12-06 09:00:00,
2013-12-06 03:04:00,15.9,11.7,30.35,NW,304,7.0,8.0,83,0.00,,,0.00,Wunderground v.1.15,2013-12-06 09:04:00,
2013-12-06 03:06:00,15.9,11.7,30.35,NW,309,7.0,8.0,83,0.00,,,0.00,Wunderground v.1.15,2013-12-06 09:06:00,
2013-12-06 03:08:00,15.9,11.9,30.35,NW,317,6.0,8.0,84,0.00,,,0.00,Wunderground v.1.15,2013-12-06 09:08:00,
2013-12-06 03:12:00,15.9,11.9,30.34,NW,313,6.0,7.0,84,0.00,,,0.00,Wunderground v.1.15,2013-12-06 09:12:00,
2013-12-06 03:14:00,15.9,11.9,30.34,NW,316,6.0,8.0,84,0.00,,,0.00,Wunderground v.1.15,2013-12-06 09:14:00,
2013-12-06 03:16:00,15.9,11.9,30.35,NW,304,6.0,8.0,84,0.00,,,0.00,Wunderground v.1.15,2013-12-06 09:16:00,
2013-12-06 03:18:00,15.8,11.6,30.35,NW,318,5.0,8.0,83,0.00,,,0.00,Wunderground v.1.15,2013-12-06 09:18:00,
2013-12-06 03:20:00,15.7,11.2,30.35,NW,326,6.0,8.0,82,0.00,,,0.00,Wunderground v.1.15,2013-12-06 09:20:00,
2013-12-06 03:24:00,15.6,10.8,30.36,NW,315,6.0,8.0,81,0.00,,,0.00,Wunderground v.1.15,2013-12-06 09:24:00,
2013-12-06 03:30:00,15.5,10.7,30.36,NNW,327,7.0,8.0,81,0.00,,,0.00,Wunderground v.1.15,2013-12-06 09:30:00,
2013-12-06 03:32:00,15.5,10.7,30.36,NW,306,7.0,8.0,81,0.00,,,0.00,Wunderground v.1.15,2013-12-06 09:32:00,
2013-12-06 03:36:00,15.4,10.6,30.37,NW,304,7.0,8.0,81,0.00,,,0.00,Wunderground v.1.15,2013-12-06 09:36:00,
2013-12-06 03:38:00,15.4,10.6,30.36,WNW,300,7.0,8.0,81,0.00,,,0.00,Wunderground v.1.15,2013-12-06 09:38:00,
2013-12-06 03:40:00,15.4,10.6,30.36,NW,313,7.0,8.0,81,0.00,,,0.00,Wunderground v.1.15,2013-12-06 09:40:00,
2013-12-06 03:42:00,15.4,10.6,30.36,NW,309,7.0,8.0,81,0.00,,,0.00,Wunderground v.1.15,2013-12-06 09:42:00,
2013-12-06 03:44:00,15.5,10.7,30.37,WNW,298,8.0,8.0,81,0.00,,,0.00,Wunderground v.1.15,2013-12-06 09:44:00,
2013-12-06 03:46:00,15.5,11.0,30.36,WNW,289,7.0,9.0,82,0.00,,,0.00,Wunderground v.1.15,2013-12-06 09:46:00,
2013-12-06 03:48:00,15.5,11.0,30.36,WNW,284,7.0,9.0,82,0.00,,,0.00,Wunderground v.1.15,2013-12-06 09:48:00,
2013-12-06 03:50:00,15.5,11.0,30.36,WNW,300,7.0,8.0,82,0.00,,,0.00,Wunderground v.1.15,2013-12-06 09:50:00,
2013-12-06 03:52:00,15.5,11.0,30.36,NW,314,7.0,8.0,82,0.00,,,0.00,Wunderground v.1.15,2013-12-06 09:52:00,
2013-12-06 03:54:00,15.5,11.0,30.36,NW,323,7.0,8.0,82,0.00,,,0.00,Wunderground v.1.15,2013-12-06 09:54:00,
2013-12-06 03:56:00,15.5,11.0,30.36,NW,309,7.0,8.0,82,0.00,,,0.00,Wunderground v.1.15,2013-12-06 09:56:00,
2013-12-06 03:58:00,15.6,11.1,30.37,WNW,292,6.0,8.0,82,0.00,,,0.00,Wunderground v.1.15,2013-12-06 09:58:00,
2013-12-06 04:02:00,15.6,11.1,30.37,NW,311,6.0,9.0,82,0.00,,,0.00,Wunderground v.1.15,2013-12-06 10:02:00,
2013-12-06 04:04:00,15.6,11.1,30.36,NW,308,7.0,9.0,82,0.00,,,0.00,Wunderground v.1.15,2013-12-06 10:04:00,
2013-12-06 04:06:00,15.6,11.1,30.36,WNW,290,7.0,9.0,82,0.00,,,0.00,Wunderground v.1.15,2013-12-06 10:06:00,
2013-12-06 04:10:00,15.5,11.0,30.36,NNW,328,8.0,8.0,82,0.00,,,0.00,Wunderground v.1.15,2013-12-06 10:10:00,
2013-12-06 04:12:00,15.5,10.7,30.37,WNW,297,9.0,9.0,81,0.00,,,0.00,Wunderground v.1.15,2013-12-06 10:12:00,
2013-12-06 04:18:00,15.4,10.6,30.36,NW,316,9.0,10.0,81,0.00,,,0.00,Wunderground v.1.15,2013-12-06 10:18:00,
2013-12-06 04:22:00,15.4,10.9,30.36,NW,318,9.0,9.0,82,0.00,,,0.00,Wunderground v.1.15,2013-12-06 10:22:00,
2013-12-06 04:24:00,15.4,10.9,30.36,NW,326,9.0,9.0,82,0.00,,,0.00,Wunderground v.1.15,2013-12-06 10:24:00,
2013-12-06 04:26:00,15.4,10.9,30.36,NW,320,8.0,10.0,82,0.00,,,0.00,Wunderground v.1.15,2013-12-06 10:26:00,
2013-12-06 04:28:00,15.4,10.9,30.36,NW,307,8.0,10.0,82,0.00,,,0.00,Wunderground v.1.15,2013-12-06 10:28:00,
2013-12-06 04:30:00,15.4,11.2,30.36,NW,323,8.0,8.0,83,0.00,,,0.00,Wunderground v.1.15,2013-12-06 10:30:00,
2013-12-06 04:32:00,15.4,11.2,30.36,WNW,295,7.0,11.0,83,0.00,,,0.00,Wunderground v.1.15,2013-12-06 10:32:00,
2013-12-06 04:36:00,15.4,10.9,30.36,NW,322,7.0,11.0,82,0.00,,,0.00,Wunderground v.1.15,2013-12-06 10:36:00,
2013-12-06 04:38:00,15.4,11.2,30.37,NW,322,7.0,11.0,83,0.00,,,0.00,Wunderground v.1.15,2013-12-06 10:38:00,
2013-12-06 04:40:00,15.3,11.1,30.37,NW,316,7.0,8.0,83,0.00,,,0.00,Wunderground v.1.15,2013-12-06 10:40:00,
2013-12-06 04:42:00,15.4,11.2,30.37,NNW,345,7.0,8.0,83,0.00,,,0.00,Wunderground v.1.15,2013-12-06 10:42:00,
2013-12-06 04:48:00,15.2,11.0,30.37,NW,311,6.0,8.0,83,0.00,,,0.00,Wunderground v.1.15,2013-12-06 10:48:00,
2013-12-06 04:50:00,15.2,11.0,30.37,NW,315,6.0,10.0,83,0.00,,,0.00,Wunderground v.1.15,2013-12-06 10:50:00,
2013-12-06 04:56:00,15.1,10.3,30.38,WNW,298,7.0,10.0,81,0.00,,,0.00,Wunderground v.1.15,2013-12-06 10:56:00,
2013-12-06 04:58:00,15.1,10.3,30.38,WNW,298,7.0,10.0,81,0.00,,,0.00,Wunderground v.1.15,2013-12-06 10:58:00,
2013-12-06 05:00:00,15.1,10.3,30.37,NW,309,7.0,7.0,81,0.00,,,0.00,Wunderground v.1.15,2013-12-06 11:00:00,
2013-12-06 05:02:00,15.1,10.3,30.37,NW,307,7.0,8.0,81,0.00,,,0.00,Wunderground v.1.15,2013-12-06 11:02:00,
2013-12-06 05:06:00,15.0,10.2,30.38,NW,324,7.0,9.0,81,0.00,,,0.00,Wunderground v.1.15,2013-12-06 11:06:00,
2013-12-06 05:08:00,14.9,10.1,30.38,WNW,284,7.0,9.0,81,0.00,,,0.00,Wunderground v.1.15,2013-12-06 11:08:00,
2013-12-06 05:10:00,14.9,10.1,30.38,WNW,288,8.0,8.0,81,0.00,,,0.00,Wunderground v.1.15,2013-12-06 11:10:00,
2013-12-06 05:12:00,15.0,10.5,30.38,NW,320,8.0,8.0,82,0.00,,,0.00,Wunderground v.1.15,2013-12-06 11:12:00,
2013-12-06 05:18:00,14.8,10.0,30.38,WNW,297,9.0,11.0,81,0.00,,,0.00,Wunderground v.1.15,2013-12-06 11:18:00,
2013-12-06 05:22:00,14.7,9.9,30.38,WNW,293,10.0,14.0,81,0.00,,,0.00,Wunderground v.1.15,2013-12-06 11:22:00,
2013-12-06 05:24:00,14.6,9.8,30.38,NW,313,10.0,14.0,81,0.00,,,0.00,Wunderground v.1.15,2013-12-06 11:24:00,
2013-12-06 05:26:00,14.6,9.8,30.38,WNW,295,10.0,14.0,81,0.00,,,0.00,Wunderground v.1.15,2013-12-06 11:26:00,
2013-12-06 05:28:00,14.6,10.1,30.38,WNW,300,10.0,14.0,82,0.00,,,0.00,Wunderground v.1.15,2013-12-06 11:28:00,
2013-12-06 05:30:00,14.6,10.1,30.38,WNW,293,10.0,10.0,82,0.00,,,0.00,Wunderground v.1.15,2013-12-06 11:30:00,
2013-12-06 05:32:00,14.5,10.0,30.38,NW,323,9.0,10.0,82,0.00,,,0.00,Wunderground v.1.15,2013-12-06 11:32:00,
2013-12-06 05:36:00,14.4,9.6,30.38,NW,324,8.0,10.0,81,0.00,,,0.00,Wunderground v.1.15,2013-12-06 11:36:00,
2013-12-06 05:38:00,14.4,9.9,30.39,NW,326,8.0,10.0,82,0.00,,,0.00,Wunderground v.1.15,2013-12-06 11:38:00,
2013-12-06 05:40:00,14.4,9.6,30.39,NW,309,8.0,8.0,81,0.00,,,0.00,Wunderground v.1.15,2013-12-06 11:40:00,
2013-12-06 05:42:00,14.3,9.8,30.38,WNW,288,7.0,9.0,82,0.00,,,0.00,Wunderground v.1.15,2013-12-06 11:42:00,
2013-12-06 05:44:00,14.3,9.5,30.39,NW,308,7.0,9.0,81,0.00,,,0.00,Wunderground v.1.15,2013-12-06 11:44:00,
2013-12-06 05:48:00,14.2,9.2,30.39,NW,323,8.0,9.0,80,0.00,,,0.00,Wunderground v.1.15,2013-12-06 11:48:00,
2013-12-06 05:50:00,14.1,9.3,30.40,WNW,300,8.0,11.0,81,0.00,,,0.00,Wunderground v.1.15,2013-12-06 11:50:00,
2013-12-06 05:54:00,14.1,9.3,30.39,WNW,293,9.0,11.0,81,0.00,,,0.00,Wunderground v.1.15,2013-12-06 11:54:00,
2013-12-06 05:56:00,14.1,9.3,30.39,NW,314,8.0,11.0,81,0.00,,,0.00,Wunderground v.1.15,2013-12-06 11:56:00,
2013-12-06 06:00:00,14.0,9.2,30.39,NW,314,8.0,8.0,81,0.00,,,0.00,Wunderground v.1.15,2013-12-06 12:00:00,
2013-12-06 06:02:00,14.0,9.2,30.39,West,274,7.0,8.0,81,0.00,,,0.00,Wunderground v.1.15,2013-12-06 12:02:00,
2013-12-06 06:04:00,13.9,9.1,30.39,NW,317,7.0,10.0,81,0.00,,,0.00,Wunderground v.1.15,2013-12-06 12:04:00,
2013-12-06 06:08:00,13.9,9.1,30.39,WNW,287,8.0,10.0,81,0.00,,,0.00,Wunderground v.1.15,2013-12-06 12:08:00,
2013-12-06 06:10:00,13.9,9.1,30.39,WNW,293,8.0,11.0,81,0.00,,,0.00,Wunderground v.1.15,2013-12-06 12:10:00,
2013-12-06 06:12:00,13.8,9.0,30.39,NW,326,8.0,11.0,81,0.00,,,0.00,Wunderground v.1.15,2013-12-06 12:12:00,
2013-12-06 06:14:00,13.8,9.0,30.39,NNW,328,8.0,11.0,81,0.00,,,0.00,Wunderground v.1.15,2013-12-06 12:14:00,
2013-12-06 06:20:00,13.6,8.9,30.39,North,356,9.0,9.0,81,0.00,,,0.00,Wunderground v.1.15,2013-12-06 12:20:00,
2013-12-06 06:22:00,13.6,9.1,30.39,NW,323,8.0,9.0,82,0.00,,,0.00,Wunderground v.1.15,2013-12-06 12:22:00,
2013-12-06 06:26:00,13.6,9.1,30.39,NW,323,8.0,9.0,82,0.00,,,0.00,Wunderground v.1.15,2013-12-06 12:26:00,
2013-12-06 06:28:00,13.6,9.1,30.40,NW,305,8.0,9.0,82,0.00,,,0.00,Wunderground v.1.15,2013-12-06 12:28:00,
2013-12-06 06:32:00,13.5,8.8,30.39,NNW,329,7.0,10.0,81,0.00,,,0.00,Wunderground v.1.15,2013-12-06 12:32:00,
2013-12-06 06:34:00,13.5,8.8,30.39,NW,316,7.0,10.0,81,0.00,,,0.00,Wunderground v.1.15,2013-12-06 12:34:00,
2013-12-06 06:36:00,13.5,8.8,30.39,NW,316,8.0,10.0,81,0.00,,,0.00,Wunderground v.1.15,2013-12-06 12:36:00,
2013-12-06 06:38:00,13.5,8.8,30.39,WNW,300,8.0,12.0,81,0.00,,,0.00,Wunderground v.1.15,2013-12-06 12:38:00,
2013-12-06 06:42:00,13.5,8.8,30.39,NW,306,8.0,8.0,81,0.00,,,0.00,Wunderground v.1.15,2013-12-06 12:42:00,
2013-12-06 06:44:00,13.5,8.8,30.39,NW,312,8.0,8.0,81,0.00,,,0.00,Wunderground v.1.15,2013-12-06 12:44:00,
2013-12-06 06:48:00,13.4,8.4,30.40,NW,326,9.0,11.0,80,0.00,,,0.00,Wunderground v.1.15,2013-12-06 12:48:00,
2013-12-06 06:50:00,13.4,8.4,30.41,NW,316,9.0,9.0,80,0.00,,,0.00,Wunderground v.1.15,2013-12-06 12:50:00,
2013-12-06 06:52:00,13.4,8.4,30.41,NW,317,9.0,11.0,80,0.00,,,0.00,Wunderground v.1.15,2013-12-06 12:52:00,
2013-12-06 06:54:00,13.4,8.4,30.40,NW,322,9.0,11.0,80,0.00,,,0.00,Wunderground v.1.15,2013-12-06 12:54:00,
2013-12-06 06:56:00,13.4,8.4,30.40,NW,325,9.0,11.0,80,0.00,,,0.00,Wunderground v.1.15,2013-12-06 12:56:00,
2013-12-06 06:58:00,13.4,8.4,30.40,NW,326,9.0,12.0,80,0.00,,,0.00,Wunderground v.1.15,2013-12-06 12:58:00,
2013-12-06 07:00:00,13.4,8.4,30.40,NW,309,9.0,9.0,80,0.00,,,0.00,Wunderground v.1.15,2013-12-06 13:00:00,
2013-12-06 07:02:00,13.4,8.7,30.40,North,349,8.0,9.0,81,0.00,,,0.00,Wunderground v.1.15,2013-12-06 13:02:00,
2013-12-06 07:08:00,13.4,8.7,30.40,NW,306,7.0,9.0,81,0.00,,,0.00,Wunderground v.1.15,2013-12-06 13:08:00,
2013-12-06 07:10:00,13.4,8.7,30.40,WNW,300,7.0,8.0,81,0.00,,,0.00,Wunderground v.1.15,2013-12-06 13:10:00,
2013-12-06 07:12:00,13.3,8.6,30.40,WNW,293,7.0,8.0,81,0.00,,,0.00,Wunderground v.1.15,2013-12-06 13:12:00,
2013-12-06 07:16:00,13.4,8.7,30.40,NNW,335,8.0,8.0,81,0.00,,,0.00,Wunderground v.1.15,2013-12-06 13:16:00,
2013-12-06 07:18:00,13.3,8.6,30.40,NW,304,8.0,8.0,81,0.00,,,0.00,Wunderground v.1.15,2013-12-06 13:18:00,
2013-12-06 07:20:00,13.3,8.6,30.41,NW,325,8.0,8.0,81,0.00,,,0.00,Wunderground v.1.15,2013-12-06 13:20:00,
2013-12-06 07:22:00,13.3,8.6,30.41,NW,321,8.0,10.0,81,0.00,,,0.00,Wunderground v.1.15,2013-12-06 13:22:00,
2013-12-06 07:24:00,13.3,8.3,30.42,WNW,290,8.0,10.0,80,0.00,,,0.00,Wunderground v.1.15,2013-12-06 13:24:00,
2013-12-06 07:26:00,13.3,8.3,30.42,WNW,302,8.0,10.0,80,0.00,,,0.00,Wunderground v.1.15,2013-12-06 13:26:00,
2013-12-06 07:30:00,13.3,8.6,30.42,NW,325,8.0,9.0,81,0.00,,,0.00,Wunderground v.1.15,2013-12-06 13:30:00,
2013-12-06 07:32:00,13.4,8.7,30.42,WNW,290,7.0,9.0,81,0.00,,,0.00,Wunderground v.1.15,2013-12-06 13:32:00,
2013-12-06 07:36:00,13.5,9.0,30.42,WNW,293,7.0,9.0,82,0.00,,,0.00,Wunderground v.1.15,2013-12-06 13:36:00,
2013-12-06 07:38:00,13.6,9.1,30.42,WSW,252,6.0,10.0,82,0.00,,,0.00,Wunderground v.1.15,2013-12-06 13:38:00,
2013-12-06 07:40:00,13.5,9.0,30.42,NW,309,7.0,11.0,82,0.00,,,0.00,Wunderground v.1.15,2013-12-06 13:40:00,
2013-12-06 07:42:00,13.5,8.8,30.42,WNW,302,7.0,11.0,81,0.00,,,0.00,Wunderground v.1.15,2013-12-06 13:42:00,
2013-12-06 07:46:00,13.4,8.9,30.41,NW,323,8.0,11.0,82,0.00,,,0.00,Wunderground v.1.15,2013-12-06 13:46:00,
2013-12-06 07:50:00,13.5,9.0,30.41,WNW,289,9.0,9.0,82,0.00,,,0.00,Wunderground v.1.15,2013-12-06 13:50:00,
2013-12-06 07:52:00,13.4,8.7,30.41,NW,305,9.0,9.0,81,0.00,,,0.00,Wunderground v.1.15,2013-12-06 13:52:00,
2013-12-06 07:56:00,13.5,8.8,30.42,NW,322,9.0,11.0,81,0.00,,,0.00,Wunderground v.1.15,2013-12-06 13:56:00,
2013-12-06 08:00:00,13.5,8.8,30.42,NNW,327,9.0,9.0,81,0.00,,,0.00,Wunderground v.1.15,2013-12-06 14:00:00,
2013-12-06 08:02:00,13.5,8.8,30.42,NW,322,9.0,10.0,81,0.00,,,0.00,Wunderground v.1.15,2013-12-06 14:02:00,
2013-12-06 08:04:00,13.5,8.8,30.42,NNW,336,9.0,12.0,81,0.00,,,0.00,Wunderground v.1.15,2013-12-06 14:04:00,
2013-12-06 08:06:00,13.6,8.9,30.42,NNW,327,9.0,12.0,81,0.00,,,0.00,Wunderground v.1.15,2013-12-06 14:06:00,
2013-12-06 08:10:00,13.6,8.9,30.42,NW,323,9.0,11.0,81,0.00,,,0.00,Wunderground v.1.15,2013-12-06 14:10:00,
2013-12-06 08:14:00,13.7,9.0,30.42,NW,307,9.0,11.0,81,0.00,,,0.00,Wunderground v.1.15,2013-12-06 14:14:00,
2013-12-06 08:16:00,13.7,9.0,30.42,North,8,8.0,11.0,81,0.00,,,0.00,Wunderground v.1.15,2013-12-06 14:16:00,
2013-12-06 08:20:00,13.8,9.0,30.43,NW,318,8.0,8.0,81,0.00,,,0.00,Wunderground v.1.15,2013-12-06 14:20:00,
2013-12-06 08:22:00,13.8,9.0,30.42,NNW,328,8.0,8.0,81,0.00,,,0.00,Wunderground v.1.15,2013-12-06 14:22:00,
2013-12-06 08:24:00,13.8,9.0,30.42,NNW,329,8.0,11.0,81,0.00,,,0.00,Wunderground v.1.15,2013-12-06 14:24:00,
2013-12-06 08:26:00,13.8,9.0,30.42,West,280,8.0,11.0,81,0.00,,,0.00,Wunderground v.1.15,2013-12-06 14:26:00,
2013-12-06 08:30:00,13.8,9.3,30.43,WNW,284,8.0,8.0,82,0.00,,,0.00,Wunderground v.1.15,2013-12-06 14:30:00,
2013-12-06 08:32:00,13.8,9.3,30.43,West,262,8.0,8.0,82,0.00,,,0.00,Wunderground v.1.15,2013-12-06 14:32:00,
2013-12-06 08:36:00,13.7,9.0,30.44,WNW,302,8.0,10.0,81,0.00,,,0.00,Wunderground v.1.15,2013-12-06 14:36:00,
2013-12-06 08:44:00,13.9,9.1,30.45,NW,326,8.0,8.0,81,0.00,,,0.00,Wunderground v.1.15,2013-12-06 14:44:00,
2013-12-06 08:46:00,13.9,9.4,30.46,NW,313,8.0,8.0,82,0.00,,,0.00,Wunderground v.1.15,2013-12-06 14:46:00,
2013-12-06 08:50:00,13.9,9.1,30.46,West,280,7.0,8.0,81,0.00,,,0.00,Wunderground v.1.15,2013-12-06 14:50:00,
2013-12-06 08:52:00,14.0,9.2,30.46,WNW,301,8.0,8.0,81,0.00,,,0.00,Wunderground v.1.15,2013-12-06 14:52:00,
2013-12-06 08:54:00,13.9,8.9,30.46,WNW,284,8.0,8.0,80,0.00,,,0.00,Wunderground v.1.15,2013-12-06 14:54:00,
2013-12-06 08:56:00,13.9,8.9,30.46,WNW,294,8.0,9.0,80,0.00,,,0.00,Wunderground v.1.15,2013-12-06 14:56:00,
2013-12-06 09:02:00,13.9,8.6,30.46,WNW,298,10.0,10.0,79,0.00,,,0.00,Wunderground v.1.15,2013-12-06 15:02:00,
2013-12-06 09:04:00,13.9,8.9,30.46,WNW,293,9.0,10.0,80,0.00,,,0.00,Wunderground v.1.15,2013-12-06 15:04:00,
2013-12-06 09:06:00,13.9,8.6,30.46,WNW,289,9.0,10.0,79,0.00,,,0.00,Wunderground v.1.15,2013-12-06 15:06:00,
2013-12-06 09:08:00,13.9,8.6,30.46,NW,326,9.0,10.0,79,0.00,,,0.00,Wunderground v.1.15,2013-12-06 15:08:00,
2013-12-06 09:10:00,13.9,8.3,30.47,NW,326,9.0,11.0,78,0.00,,,0.00,Wunderground v.1.15,2013-12-06 15:10:00,
2013-12-06 09:14:00,13.9,8.6,30.46,NW,317,9.0,11.0,79,0.00,,,0.00,Wunderground v.1.15,2013-12-06 15:14:00,
2013-12-06 09:16:00,13.9,8.6,30.46,NW,320,9.0,11.0,79,0.00,,,0.00,Wunderground v.1.15,2013-12-06 15:16:00,
2013-12-06 09:18:00,14.0,8.4,30.46,NNW,335,9.0,11.0,78,0.00,,,0.00,Wunderground v.1.15,2013-12-06 15:18:00,
2013-12-06 09:20:00,14.0,8.4,30.46,WNW,285,9.0,9.0,78,0.00,,,0.00,Wunderground v.1.15,2013-12-06 15:20:00,
2013-12-06 09:22:00,14.1,8.5,30.46,West,266,8.0,9.0,78,0.00,,,0.00,Wunderground v.1.15,2013-12-06 15:22:00,
2013-12-06 09:24:00,14.1,8.5,30.46,NW,318,8.0,9.0,78,0.00,,,0.00,Wunderground v.1.15,2013-12-06 15:24:00,
2013-12-06 09:26:00,14.2,8.9,30.47,NNW,331,7.0,9.0,79,0.00,,,0.00,Wunderground v.1.15,2013-12-06 15:26:00,
2013-12-06 09:30:00,14.1,8.5,30.48,WNW,290,7.0,8.0,78,0.00,,,0.00,Wunderground v.1.15,2013-12-06 15:30:00,
2013-12-06 09:32:00,14.1,8.5,30.48,WNW,294,7.0,8.0,78,0.00,,,0.00,Wunderground v.1.15,2013-12-06 15:32:00,
2013-12-06 09:34:00,14.1,8.5,30.47,West,281,7.0,8.0,78,0.00,,,0.00,Wunderground v.1.15,2013-12-06 15:34:00,
2013-12-06 09:36:00,14.1,8.8,30.47,WNW,302,7.0,8.0,79,0.00,,,0.00,Wunderground v.1.15,2013-12-06 15:36:00,
2013-12-06 09:40:00,14.1,8.5,30.48,WNW,300,7.0,9.0,78,0.00,,,0.00,Wunderground v.1.15,2013-12-06 15:40:00,
2013-12-06 09:42:00,14.1,8.5,30.48,NNW,327,7.0,9.0,78,0.00,,,0.00,Wunderground v.1.15,2013-12-06 15:42:00,
2013-12-06 09:44:00,14.1,8.5,30.47,WNW,295,7.0,11.0,78,0.00,,,0.00,Wunderground v.1.15,2013-12-06 15:44:00,
2013-12-06 09:48:00,13.9,8.0,30.46,NW,304,9.0,12.0,77,0.00,,,0.00,Wunderground v.1.15,2013-12-06 15:48:00,
2013-12-06 09:50:00,13.9,8.0,30.47,NNW,329,9.0,9.0,77,0.00,,,0.00,Wunderground v.1.15,2013-12-06 15:50:00,
2013-12-06 09:52:00,14.0,8.4,30.47,WNW,284,9.0,10.0,78,0.00,,,0.00,Wunderground v.1.15,2013-12-06 15:52:00,
2013-12-06 09:56:00,14.0,8.1,30.47,NW,313,9.0,12.0,77,0.00,,,0.00,Wunderground v.1.15,2013-12-06 15:56:00,
2013-12-06 09:58:00,13.9,8.0,30.47,NNW,346,9.0,12.0,77,0.00,,,0.00,Wunderground v.1.15,2013-12-06 15:58:00,
2013-12-06 10:04:00,14.4,8.5,30.47,NNW,329,9.0,10.0,77,0.00,,,0.00,Wunderground v.1.15,2013-12-06 16:04:00,
2013-12-06 10:06:00,14.4,8.5,30.47,NNW,331,9.0,12.0,77,0.00,,,0.00,Wunderground v.1.15,2013-12-06 16:06:00,
2013-12-06 10:10:00,14.3,8.1,30.47,North,349,8.0,8.0,76,0.00,,,0.00,Wunderground v.1.15,2013-12-06 16:10:00,
2013-12-06 10:12:00,14.3,8.4,30.47,NW,320,8.0,8.0,77,0.00,,,0.00,Wunderground v.1.15,2013-12-06 16:12:00,
2013-12-06 10:14:00,14.3,8.4,30.46,NW,315,8.0,8.0,77,0.00,,,0.00,Wunderground v.1.15,2013-12-06 16:14:00,
2013-12-06 10:16:00,14.3,8.4,30.46,NNW,330,8.0,10.0,77,0.00,,,0.00,Wunderground v.1.15,2013-12-06 16:16:00,
2013-12-06 10:18:00,14.3,8.4,30.47,NW,317,8.0,10.0,77,0.00,,,0.00,Wunderground v.1.15,2013-12-06 16:18:00,
2013-12-06 10:20:00,14.3,8.4,30.47,WNW,301,8.0,10.0,77,0.00,,,0.00,Wunderground v.1.15,2013-12-06 16:20:00,
2013-12-06 10:22:00,14.4,8.5,30.48,NW,320,8.0,10.0,77,0.00,,,0.00,Wunderground v.1.15,2013-12-06 16:22:00,
2013-12-06 10:24:00,14.4,8.5,30.47,NW,324,8.0,11.0,77,0.00,,,0.00,Wunderground v.1.15,2013-12-06 16:24:00,
2013-12-06 10:26:00,14.5,8.3,30.47,WNW,302,8.0,11.0,76,0.00,,,0.00,Wunderground v.1.15,2013-12-06 16:26:00,
2013-12-06 10:32:00,14.6,8.4,30.47,NW,315,8.0,10.0,76,0.00,,,0.00,Wunderground v.1.15,2013-12-06 16:32:00,
2013-12-06 10:34:00,14.6,8.4,30.47,WNW,295,8.0,11.0,76,0.00,,,0.00,Wunderground v.1.15,2013-12-06 16:34:00,
2013-12-06 10:36:00,14.6,8.4,30.47,NNW,335,8.0,11.0,76,0.00,,,0.00,Wunderground v.1.15,2013-12-06 16:36:00,
2013-12-06 10:38:00,14.6,8.4,30.46,NW,309,8.0,11.0,76,0.00,,,0.00,Wunderground v.1.15,2013-12-06 16:38:00,
2013-12-06 10:40:00,14.6,8.4,30.45,NW,314,8.0,8.0,76,0.00,,,0.00,Wunderground v.1.15,2013-12-06 16:40:00,
2013-12-06 10:42:00,14.6,8.4,30.46,North,353,8.0,8.0,76,0.00,,,0.00,Wunderground v.1.15,2013-12-06 16:42:00,
2013-12-06 10:44:00,14.8,8.9,30.46,NNW,346,7.0,8.0,77,0.00,,,0.00,Wunderground v.1.15,2013-12-06 16:44:00,
2013-12-06 10:50:00,14.9,8.7,30.45,WNW,302,7.0,8.0,76,0.00,,,0.00,Wunderground v.1.15,2013-12-06 16:50:00,
2013-12-06 10:52:00,14.9,8.7,30.46,NW,315,7.0,8.0,76,0.00,,,0.00,Wunderground v.1.15,2013-12-06 16:52:00,
2013-12-06 10:54:00,14.8,8.3,30.46,NNW,337,7.0,8.0,75,0.00,,,0.00,Wunderground v.1.15,2013-12-06 16:54:00,
2013-12-06 10:58:00,14.8,8.6,30.46,WNW,293,8.0,9.0,76,0.00,,,0.00,Wunderground v.1.15,2013-12-06 16:58:00,
2013-12-06 11:00:00,14.7,8.5,30.46,NW,312,9.0,9.0,76,0.00,,,0.00,Wunderground v.1.15,2013-12-06 17:00:00,
2013-12-06 11:02:00,14.7,8.5,30.45,NNW,327,9.0,10.0,76,0.00,,,0.00,Wunderground v.1.15,2013-12-06 17:02:00,
2013-12-06 11:06:00,14.8,8.9,30.46,WNW,297,9.0,10.0,77,0.00,,,0.00,Wunderground v.1.15,2013-12-06 17:06:00,
2013-12-06 11:08:00,14.8,8.9,30.46,West,269,9.0,10.0,77,0.00,,,0.00,Wunderground v.1.15,2013-12-06 17:08:00,
2013-12-06 11:12:00,14.7,8.5,30.46,NW,315,8.0,8.0,76,0.00,,,0.00,Wunderground v.1.15,2013-12-06 17:12:00,
2013-12-06 11:14:00,14.9,9.3,30.46,WNW,288,7.0,8.0,78,0.00,,,0.00,Wunderground v.1.15,2013-12-06 17:14:00,
2013-12-06 11:18:00,15.0,8.8,30.46,NNW,342,7.0,10.0,76,0.00,,,0.00,Wunderground v.1.15,2013-12-06 17:18:00,
2013-12-06 11:20:00,14.9,8.7,30.45,NNW,335,7.0,8.0,76,0.00,,,0.00,Wunderground v.1.15,2013-12-06 17:20:00,
2013-12-06 11:22:00,14.9,8.7,30.45,NW,322,8.0,8.0,76,0.00,,,0.00,Wunderground v.1.15,2013-12-06 17:22:00,
2013-12-06 11:24:00,14.9,8.7,30.45,NW,314,8.0,8.0,76,0.00,,,0.00,Wunderground v.1.15,2013-12-06 17:24:00,
2013-12-06 11:26:00,14.9,8.7,30.45,NW,304,8.0,8.0,76,0.00,,,0.00,Wunderground v.1.15,2013-12-06 17:26:00,
2013-12-06 11:30:00,15.3,9.4,30.44,NNW,327,8.0,8.0,77,0.00,,,0.00,Wunderground v.1.15,2013-12-06 17:30:00,
2013-12-06 11:32:00,15.3,9.1,30.45,NW,315,7.0,9.0,76,0.00,,,0.00,Wunderground v.1.15,2013-12-06 17:32:00,
2013-12-06 11:36:00,15.3,8.8,30.44,North,349,7.0,9.0,75,0.00,,,0.00,Wunderground v.1.15,2013-12-06 17:36:00,
2013-12-06 11:38:00,15.5,9.3,30.45,NNW,329,8.0,13.0,76,0.00,,,0.00,Wunderground v.1.15,2013-12-06 17:38:00,
2013-12-06 11:40:00,15.4,8.9,30.45,NW,309,8.0,11.0,75,0.00,,,0.00,Wunderground v.1.15,2013-12-06 17:40:00,
2013-12-06 11:42:00,15.4,8.9,30.44,NW,304,8.0,11.0,75,0.00,,,0.00,Wunderground v.1.15,2013-12-06 17:42:00,
2013-12-06 11:44:00,15.4,8.9,30.44,NNW,338,8.0,11.0,75,0.00,,,0.00,Wunderground v.1.15,2013-12-06 17:44:00,
2013-12-06 11:46:00,15.4,9.2,30.45,WNW,290,8.0,11.0,76,0.00,,,0.00,Wunderground v.1.15,2013-12-06 17:46:00,
2013-12-06 11:48:00,15.4,8.9,30.45,NNW,335,9.0,11.0,75,0.00,,,0.00,Wunderground v.1.15,2013-12-06 17:48:00,
2013-12-06 11:52:00,15.3,8.8,30.46,North,349,9.0,10.0,75,0.00,,,0.00,Wunderground v.1.15,2013-12-06 17:52:00,
2013-12-06 11:54:00,15.2,8.7,30.45,WNW,293,9.0,10.0,75,0.00,,,0.00,Wunderground v.1.15,2013-12-06 17:54:00,
2013-12-06 11:56:00,15.2,8.7,30.45,NW,309,8.0,10.0,75,0.00,,,0.00,Wunderground v.1.15,2013-12-06 17:56:00,
2013-12-06 11:58:00,15.2,9.0,30.45,NW,325,8.0,10.0,76,0.00,,,0.00,Wunderground v.1.15,2013-12-06 17:58:00,
2013-12-06 12:02:00,15.4,9.2,30.43,NNW,329,8.0,10.0,76,0.00,,,0.00,Wunderground v.1.15,2013-12-06 18:02:00,
2013-12-06 12:04:00,15.4,8.9,30.44,WNW,300,9.0,10.0,75,0.00,,,0.00,Wunderground v.1.15,2013-12-06 18:04:00,
2013-12-06 12:06:00,15.5,9.3,30.43,NW,318,9.0,10.0,76,0.00,,,0.00,Wunderground v.1.15,2013-12-06 18:06:00,
2013-12-06 12:08:00,15.7,9.5,30.42,NW,313,9.0,10.0,76,0.00,,,0.00,Wunderground v.1.15,2013-12-06 18:08:00,
2013-12-06 12:10:00,15.8,9.6,30.42,West,281,9.0,10.0,76,0.00,,,0.00,Wunderground v.1.15,2013-12-06 18:10:00,
2013-12-06 12:14:00,15.8,9.0,30.44,WNW,300,9.0,11.0,74,0.00,,,0.00,Wunderground v.1.15,2013-12-06 18:14:00,
2013-12-06 12:16:00,15.8,9.3,30.43,WNW,290,9.0,11.0,75,0.00,,,0.00,Wunderground v.1.15,2013-12-06 18:16:00,
2013-12-06 12:18:00,15.8,9.0,30.42,NW,307,10.0,11.0,74,0.00,,,0.00,Wunderground v.1.15,2013-12-06 18:18:00,
2013-12-06 12:22:00,15.8,9.0,30.43,North,8,10.0,11.0,74,0.00,,,0.00,Wunderground v.1.15,2013-12-06 18:22:00,
2013-12-06 12:24:00,15.8,9.0,30.44,NNW,328,9.0,11.0,74,0.00,,,0.00,Wunderground v.1.15,2013-12-06 18:24:00,
2013-12-06 12:30:00,16.6,9.8,30.45,NW,305,8.0,8.0,74,0.00,,,0.00,Wunderground v.1.15,2013-12-06 18:30:00,
2013-12-06 12:32:00,16.6,9.4,30.44,West,278,8.0,8.0,73,0.00,,,0.00,Wunderground v.1.15,2013-12-06 18:32:00,
2013-12-06 12:36:00,16.8,9.6,30.45,WNW,285,7.0,9.0,73,0.00,,,0.00,Wunderground v.1.15,2013-12-06 18:36:00,
2013-12-06 12:38:00,16.8,9.6,30.44,NW,313,8.0,12.0,73,0.00,,,0.00,Wunderground v.1.15,2013-12-06 18:38:00,
2013-12-06 12:44:00,16.8,9.6,30.44,WNW,290,8.0,8.0,73,0.00,,,0.00,Wunderground v.1.15,2013-12-06 18:44:00,
2013-12-06 12:46:00,16.7,9.5,30.43,NW,325,8.0,8.0,73,0.00,,,0.00,Wunderground v.1.15,2013-12-06 18:46:00,
2013-12-06 12:48:00,16.7,9.5,30.43,WNW,300,8.0,8.0,73,0.00,,,0.00,Wunderground v.1.15,2013-12-06 18:48:00,
2013-12-06 12:50:00,16.6,9.4,30.43,NW,316,8.0,10.0,73,0.00,,,0.00,Wunderground v.1.15,2013-12-06 18:50:00,
2013-12-06 12:52:00,16.5,9.4,30.43,NNW,346,8.0,10.0,73,0.00,,,0.00,Wunderground v.1.15,2013-12-06 18:52:00,
2013-12-06 12:58:00,16.7,9.5,30.43,NW,316,8.0,10.0,73,0.00,,,0.00,Wunderground v.1.15,2013-12-06 18:58:00,
2013-12-06 13:00:00,16.8,9.6,30.43,NW,306,8.0,10.0,73,0.00,,,0.00,Wunderground v.1.15,2013-12-06 19:00:00,
2013-12-06 13:04:00,16.7,9.2,30.44,NW,318,9.0,13.0,72,0.00,,,0.00,Wunderground v.1.15,2013-12-06 19:04:00,
2013-12-06 13:08:00,16.7,9.2,30.44,NW,316,10.0,13.0,72,0.00,,,0.00,Wunderground v.1.15,2013-12-06 19:08:00,
2013-12-06 13:10:00,16.7,9.2,30.43,WNW,295,10.0,10.0,72,0.00,,,0.00,Wunderground v.1.15,2013-12-06 19:10:00,
2013-12-06 13:12:00,16.9,9.4,30.43,NW,313,9.0,11.0,72,0.00,,,0.00,Wunderground v.1.15,2013-12-06 19:12:00,
2013-12-06 13:18:00,16.9,9.4,30.43,NW,326,9.0,11.0,72,0.00,,,0.00,Wunderground v.1.15,2013-12-06 19:18:00,
2013-12-06 13:24:00,16.8,9.3,30.45,NW,314,9.0,12.0,72,0.00,,,0.00,Wunderground v.1.15,2013-12-06 19:24:00,
2013-12-06 13:26:00,16.9,9.7,30.45,WNW,300,9.0,12.0,73,0.00,,,0.00,Wunderground v.1.15,2013-12-06 19:26:00,
2013-12-06 13:28:00,16.9,9.4,30.46,NW,326,8.0,12.0,72,0.00,,,0.00,Wunderground v.1.15,2013-12-06 19:28:00,
2013-12-06 13:32:00,17.0,9.8,30.47,NNW,335,8.0,8.0,73,0.00,,,0.00,Wunderground v.1.15,2013-12-06 19:32:00,
2013-12-06 13:34:00,16.9,9.4,30.46,NNW,330,8.0,8.0,72,0.00,,,0.00,Wunderground v.1.15,2013-12-06 19:34:00,
2013-12-06 13:38:00,17.0,9.8,30.45,NW,307,8.0,8.0,73,0.00,,,0.00,Wunderground v.1.15,2013-12-06 19:38:00,
2013-12-06 13:40:00,17.1,9.6,30.44,NW,323,8.0,8.0,72,0.00,,,0.00,Wunderground v.1.15,2013-12-06 19:40:00,
2013-12-06 13:42:00,17.1,9.6,30.45,NW,304,8.0,8.0,72,0.00,,,0.00,Wunderground v.1.15,2013-12-06 19:42:00,
2013-12-06 13:44:00,17.1,9.6,30.45,North,8,8.0,9.0,72,0.00,,,0.00,Wunderground v.1.15,2013-12-06 19:44:00,
2013-12-06 13:46:00,17.1,9.3,30.45,WNW,298,8.0,9.0,71,0.00,,,0.00,Wunderground v.1.15,2013-12-06 19:46:00,
2013-12-06 13:48:00,17.1,9.6,30.45,NW,304,8.0,9.0,72,0.00,,,0.00,Wunderground v.1.15,2013-12-06 19:48:00,
2013-12-06 13:50:00,17.1,9.6,30.45,WSW,253,9.0,9.0,72,0.00,,,0.00,Wunderground v.1.15,2013-12-06 19:50:00,
2013-12-06 13:52:00,17.1,9.6,30.45,WNW,288,8.0,9.0,72,0.00,,,0.00,Wunderground v.1.15,2013-12-06 19:52:00,
2013-12-06 13:56:00,17.0,9.5,30.44,NNW,330,8.0,12.0,72,0.00,,,0.00,Wunderground v.1.15,2013-12-06 19:56:00,
2013-12-06 14:00:00,17.3,9.5,30.43,NW,324,9.0,11.0,71,0.00,,,0.00,Wunderground v.1.15,2013-12-06 20:00:00,
2013-12-06 14:02:00,17.4,9.3,30.44,NW,319,10.0,11.0,70,0.00,,,0.00,Wunderground v.1.15,2013-12-06 20:02:00,
2013-12-06 14:06:00,17.6,9.8,30.43,NW,318,9.0,11.0,71,0.00,,,0.00,Wunderground v.1.15,2013-12-06 20:06:00,
2013-12-06 14:08:00,17.6,9.5,30.43,NNW,346,9.0,11.0,70,0.00,,,0.00,Wunderground v.1.15,2013-12-06 20:08:00,
2013-12-06 14:10:00,17.7,9.9,30.43,NW,316,9.0,9.0,71,0.00,,,0.00,Wunderground v.1.15,2013-12-06 20:10:00,
2013-12-06 14:12:00,17.9,10.1,30.43,NW,316,8.0,11.0,71,0.00,,,0.00,Wunderground v.1.15,2013-12-06 20:12:00,
2013-12-06 14:16:00,18.0,9.5,30.43,NW,325,9.0,11.0,69,0.00,,,0.00,Wunderground v.1.15,2013-12-06 20:16:00,
2013-12-06 14:18:00,18.0,9.5,30.44,WNW,293,9.0,11.0,69,0.00,,,0.00,Wunderground v.1.15,2013-12-06 20:18:00,
2013-12-06 14:20:00,18.0,9.9,30.44,West,278,9.0,10.0,70,0.00,,,0.00,Wunderground v.1.15,2013-12-06 20:20:00,
2013-12-06 14:22:00,18.1,10.0,30.44,WNW,287,9.0,10.0,70,0.00,,,0.00,Wunderground v.1.15,2013-12-06 20:22:00,
2013-12-06 14:24:00,18.2,10.1,30.45,WNW,288,9.0,10.0,70,0.00,,,0.00,Wunderground v.1.15,2013-12-06 20:24:00,
2013-12-06 14:28:00,18.1,9.6,30.45,NW,320,8.0,12.0,69,0.00,,,0.00,Wunderground v.1.15,2013-12-06 20:28:00,
2013-12-06 14:30:00,18.1,9.6,30.45,NW,308,8.0,8.0,69,0.00,,,0.00,Wunderground v.1.15,2013-12-06 20:30:00,
2013-12-06 14:32:00,18.0,9.5,30.45,West,266,8.0,8.0,69,0.00,,,0.00,Wunderground v.1.15,2013-12-06 20:32:00,
2013-12-06 14:34:00,17.9,9.4,30.45,WNW,293,7.0,13.0,69,0.00,,,0.00,Wunderground v.1.15,2013-12-06 20:34:00,
2013-12-06 14:36:00,17.8,9.3,30.45,NW,313,8.0,13.0,69,0.00,,,0.00,Wunderground v.1.15,2013-12-06 20:36:00,
2013-12-06 14:38:00,17.8,9.7,30.45,NW,324,8.0,13.0,70,0.00,,,0.00,Wunderground v.1.15,2013-12-06 20:38:00,
2013-12-06 14:40:00,18.0,10.2,30.45,West,271,8.0,8.0,71,0.00,,,0.00,Wunderground v.1.15,2013-12-06 20:40:00,
2013-12-06 14:42:00,18.2,10.4,30.44,WNW,295,8.0,9.0,71,0.00,,,0.00,Wunderground v.1.15,2013-12-06 20:42:00,
2013-12-06 14:44:00,18.2,10.1,30.44,NW,315,9.0,9.0,70,0.00,,,0.00,Wunderground v.1.15,2013-12-06 20:44:00,
2013-12-06 14:48:00,18.2,10.1,30.44,NW,309,9.0,9.0,70,0.00,,,0.00,Wunderground v.1.15,2013-12-06 20:48:00,
2013-12-06 14:54:00,18.1,9.6,30.44,WNW,295,9.0,10.0,69,0.00,,,0.00,Wunderground v.1.15,2013-12-06 20:54:00,
2013-12-06 14:56:00,18.1,9.6,30.44,NNW,327,10.0,10.0,69,0.00,,,0.00,Wunderground v.1.15,2013-12-06 20:56:00,
2013-12-06 14:58:00,18.2,10.1,30.43,NNW,335,9.0,13.0,70,0.00,,,0.00,Wunderground v.1.15,2013-12-06 20:58:00,
2013-12-06 15:00:00,18.1,9.6,30.44,NW,308,9.0,9.0,69,0.00,,,0.00,Wunderground v.1.15,2013-12-06 21:00:00,
2013-12-06 15:04:00,18.0,9.5,30.44,North,349,9.0,10.0,69,0.00,,,0.00,Wunderground v.1.15,2013-12-06 21:04:00,
2013-12-06 15:06:00,18.0,9.2,30.44,NW,309,9.0,10.0,68,0.00,,,0.00,Wunderground v.1.15,2013-12-06 21:06:00,
2013-12-06 15:10:00,17.8,9.0,30.45,WNW,288,9.0,9.0,68,0.00,,,0.00,Wunderground v.1.15,2013-12-06 21:10:00,
2013-12-06 15:16:00,17.5,9.1,30.45,WNW,301,9.0,11.0,69,0.00,,,0.00,Wunderground v.1.15,2013-12-06 21:16:00,
2013-12-06 15:18:00,17.5,9.1,30.45,NNW,327,9.0,11.0,69,0.00,,,0.00,Wunderground v.1.15,2013-12-06 21:18:00,
2013-12-06 15:20:00,17.5,9.1,30.45,NW,304,9.0,9.0,69,0.00,,,0.00,Wunderground v.1.15,2013-12-06 21:20:00,
2013-12-06 15:26:00,17.8,9.0,30.45,NW,306,8.0,9.0,68,0.00,,,0.00,Wunderground v.1.15,2013-12-06 21:26:00,
2013-12-06 15:30:00,17.8,9.0,30.45,NW,320,9.0,11.0,68,0.00,,,0.00,Wunderground v.1.15,2013-12-06 21:30:00,
2013-12-06 15:32:00,17.9,9.1,30.45,WNW,287,9.0,11.0,68,0.00,,,0.00,Wunderground v.1.15,2013-12-06 21:32:00,
2013-12-06 15:34:00,17.9,9.4,30.45,WNW,288,9.0,11.0,69,0.00,,,0.00,Wunderground v.1.15,2013-12-06 21:34:00,
2013-12-06 15:36:00,18.0,9.2,30.45,WNW,297,9.0,11.0,68,0.00,,,0.00,Wunderground v.1.15,2013-12-06 21:36:00,
2013-12-06 15:38:00,17.9,9.1,30.45,NW,318,9.0,11.0,68,0.00,,,0.00,Wunderground v.1.15,2013-12-06 21:38:00,
2013-12-06 15:40:00,17.9,9.4,30.45,NW,324,8.0,8.0,69,0.00,,,0.00,Wunderground v.1.15,2013-12-06 21:40:00,
2013-12-06 15:42:00,17.9,9.4,30.46,WNW,299,8.0,8.0,69,0.00,,,0.00,Wunderground v.1.15,2013-12-06 21:42:00,
2013-12-06 15:44:00,17.8,9.3,30.46,NW,317,8.0,8.0,69,0.00,,,0.00,Wunderground v.1.15,2013-12-06 21:44:00,
2013-12-06 15:46:00,17.8,9.3,30.46,NW,321,7.0,8.0,69,0.00,,,0.00,Wunderground v.1.15,2013-12-06 21:46:00,
2013-12-06 15:48:00,17.8,9.7,30.47,WNW,293,6.0,8.0,70,0.00,,,0.00,Wunderground v.1.15,2013-12-06 21:48:00,
2013-12-06 15:50:00,17.8,9.7,30.47,NW,315,6.0,9.0,70,0.00,,,0.00,Wunderground v.1.15,2013-12-06 21:50:00,
2013-12-06 15:54:00,17.7,9.2,30.47,NW,309,7.0,13.0,69,0.00,,,0.00,Wunderground v.1.15,2013-12-06 21:54:00,
2013-12-06 15:56:00,17.7,9.2,30.47,NNW,338,8.0,13.0,69,0.00,,,0.00,Wunderground v.1.15,2013-12-06 21:56:00,
2013-12-06 15:58:00,17.7,9.2,30.47,WNW,301,9.0,13.0,69,0.00,,,0.00,Wunderground v.1.15,2013-12-06 21:58:00,
2013-12-06 16:02:00,17.7,9.6,30.47,NW,311,8.0,11.0,70,0.00,,,0.00,Wunderground v.1.15,2013-12-06 22:02:00,
2013-12-06 16:04:00,17.7,9.2,30.47,NNW,328,9.0,12.0,69,0.00,,,0.00,Wunderground v.1.15,2013-12-06 22:04:00,
2013-12-06 16:06:00,17.6,9.2,30.47,NW,305,9.0,12.0,69,0.00,,,0.00,Wunderground v.1.15,2013-12-06 22:06:00,
2013-12-06 16:08:00,17.5,9.1,30.47,NW,325,9.0,12.0,69,0.00,,,0.00,Wunderground v.1.15,2013-12-06 22:08:00,
2013-12-06 16:10:00,17.4,9.3,30.47,NW,323,9.0,9.0,70,0.00,,,0.00,Wunderground v.1.15,2013-12-06 22:10:00,
2013-12-06 16:12:00,17.4,9.3,30.47,NW,312,9.0,9.0,70,0.00,,,0.00,Wunderground v.1.15,2013-12-06 22:12:00,
2013-12-06 16:14:00,17.3,8.9,30.47,NW,321,9.0,9.0,69,0.00,,,0.00,Wunderground v.1.15,2013-12-06 22:14:00,
2013-12-06 16:18:00,17.2,9.1,30.47,NNW,336,9.0,9.0,70,0.00,,,0.00,Wunderground v.1.15,2013-12-06 22:18:00,
2013-12-06 16:20:00,17.2,9.1,30.47,NW,309,9.0,10.0,70,0.00,,,0.00,Wunderground v.1.15,2013-12-06 22:20:00,
2013-12-06 16:22:00,17.1,9.0,30.47,NNW,327,9.0,10.0,70,0.00,,,0.00,Wunderground v.1.15,2013-12-06 22:22:00,
2013-12-06 16:26:00,17.0,8.9,30.48,NNW,333,8.0,10.0,70,0.00,,,0.00,Wunderground v.1.15,2013-12-06 22:26:00,
2013-12-06 16:28:00,17.0,8.9,30.48,NW,311,8.0,10.0,70,0.00,,,0.00,Wunderground v.1.15,2013-12-06 22:28:00,
2013-12-06 16:30:00,17.0,9.2,30.48,WNW,295,7.0,7.0,71,0.00,,,0.00,Wunderground v.1.15,2013-12-06 22:30:00,
2013-12-06 16:34:00,16.8,9.3,30.47,NW,313,7.0,8.0,72,0.00,,,0.00,Wunderground v.1.15,2013-12-06 22:34:00,
2013-12-06 16:36:00,16.6,9.4,30.47,NW,309,6.0,8.0,73,0.00,,,0.00,Wunderground v.1.15,2013-12-06 22:36:00,
2013-12-06 16:40:00,16.4,9.3,30.47,NW,326,5.0,8.0,73,0.00,,,0.00,Wunderground v.1.15,2013-12-06 22:40:00,
2013-12-06 16:42:00,16.4,9.3,30.47,WNW,293,5.0,8.0,73,0.00,,,0.00,Wunderground v.1.15,2013-12-06 22:42:00,
2013-12-06 16:44:00,16.4,9.3,30.47,NW,323,5.0,8.0,73,0.00,,,0.00,Wunderground v.1.15,2013-12-06 22:44:00,
2013-12-06 16:46:00,16.4,9.3,30.47,NW,322,6.0,8.0,73,0.00,,,0.00,Wunderground v.1.15,2013-12-06 22:46:00,
2013-12-06 16:48:00,16.3,9.5,30.47,NW,311,6.0,8.0,74,0.00,,,0.00,Wunderground v.1.15,2013-12-06 22:48:00,
2013-12-06 16:50:00,16.2,9.4,30.47,NW,315,6.0,6.0,74,0.00,,,0.00,Wunderground v.1.15,2013-12-06 22:50:00,
2013-12-06 16:52:00,16.2,9.4,30.47,NW,321,6.0,8.0,74,0.00,,,0.00,Wunderground v.1.15,2013-12-06 22:52:00,
2013-12-06 16:54:00,16.2,9.4,30.47,WNW,285,6.0,8.0,74,0.00,,,0.00,Wunderground v.1.15,2013-12-06 22:54:00,
2013-12-06 16:58:00,16.0,9.2,30.47,North,8,6.0,8.0,74,0.00,,,0.00,Wunderground v.1.15,2013-12-06 22:58:00,
2013-12-06 17:00:00,16.0,9.2,30.47,WNW,295,6.0,6.0,74,0.00,,,0.00,Wunderground v.1.15,2013-12-06 23:00:00,
2013-12-06 17:04:00,15.9,9.1,30.47,WNW,294,5.0,8.0,74,0.00,,,0.00,Wunderground v.1.15,2013-12-06 23:04:00,
2013-12-06 17:06:00,15.9,9.1,30.47,NW,326,5.0,8.0,74,0.00,,,0.00,Wunderground v.1.15,2013-12-06 23:06:00,
2013-12-06 17:08:00,15.8,9.3,30.46,NW,316,4.0,8.0,75,0.00,,,0.00,Wunderground v.1.15,2013-12-06 23:08:00,
2013-12-06 17:10:00,15.7,9.2,30.47,NW,320,4.0,4.0,75,0.00,,,0.00,Wunderground v.1.15,2013-12-06 23:10:00,
2013-12-06 17:12:00,15.5,9.0,30.47,NW,315,4.0,8.0,75,0.00,,,0.00,Wunderground v.1.15,2013-12-06 23:12:00,
2013-12-06 17:14:00,15.4,9.2,30.47,NW,321,4.0,8.0,76,0.00,,,0.00,Wunderground v.1.15,2013-12-06 23:14:00,
2013-12-06 17:18:00,15.2,9.0,30.48,NW,314,4.0,8.0,76,0.00,,,0.00,Wunderground v.1.15,2013-12-06 23:18:00,
2013-12-06 17:20:00,15.2,9.3,30.48,NW,309,4.0,8.0,77,0.00,,,0.00,Wunderground v.1.15,2013-12-06 23:20:00,
2013-12-06 17:22:00,15.1,9.2,30.48,WNW,302,4.0,8.0,77,0.00,,,0.00,Wunderground v.1.15,2013-12-06 23:22:00,
2013-12-06 17:26:00,15.1,9.2,30.49,WNW,293,4.0,8.0,77,0.00,,,0.00,Wunderground v.1.15,2013-12-06 23:26:00,
2013-12-06 17:28:00,15.0,9.4,30.49,NW,307,4.0,8.0,78,0.00,,,0.00,Wunderground v.1.15,2013-12-06 23:28:00,
2013-12-06 17:30:00,15.0,9.4,30.49,NW,318,4.0,8.0,78,0.00,,,0.00,Wunderground v.1.15,2013-12-06 23:30:00,
2013-12-06 17:32:00,15.0,9.1,30.49,NW,314,4.0,8.0,77,0.00,,,0.00,Wunderground v.1.15,2013-12-06 23:32:00,
2013-12-06 17:34:00,14.9,9.3,30.49,NW,318,4.0,8.0,78,0.00,,,0.00,Wunderground v.1.15,2013-12-06 23:34:00,
2013-12-06 17:40:00,14.7,9.1,30.49,WNW,293,4.0,8.0,78,0.00,,,0.00,Wunderground v.1.15,2013-12-06 23:40:00,
2013-12-06 17:42:00,14.7,9.1,30.49,WNW,300,4.0,8.0,78,0.00,,,0.00,Wunderground v.1.15,2013-12-06 23:42:00,
2013-12-06 17:44:00,14.7,9.1,30.49,NW,318,4.0,8.0,78,0.00,,,0.00,Wunderground v.1.15,2013-12-06 23:44:00,
2013-12-06 17:46:00,14.6,9.0,30.49,NW,304,4.0,8.0,78,0.00,,,0.00,Wunderground v.1.15,2013-12-06 23:46:00,
2013-12-06 17:48:00,14.5,8.9,30.49,WNW,295,4.0,8.0,78,0.00,,,0.00,Wunderground v.1.15,2013-12-06 23:48:00,
2013-12-06 17:50:00,14.5,9.2,30.49,NW,309,4.0,4.0,79,0.00,,,0.00,Wunderground v.1.15,2013-12-06 23:50:00,
2013-12-06 17:52:00,14.4,9.1,30.49,NW,309,5.0,5.0,79,0.00,,,0.00,Wunderground v.1.15,2013-12-06 23:52:00,
2013-12-06 17:56:00,14.4,9.1,30.49,WNW,300,5.0,8.0,79,0.00,,,0.00,Wunderground v.1.15,2013-12-06 23:56:00,
2013-12-06 18:00:00,14.3,9.0,30.50,NW,315,5.0,8.0,79,0.00,,,0.00,Wunderground v.1.15,2013-12-07 00:00:00,
2013-12-06 18:02:00,14.3,9.0,30.49,WNW,300,4.0,8.0,79,0.00,,,0.00,Wunderground v.1.15,2013-12-07 00:02:00,
2013-12-06 18:06:00,14.2,8.9,30.49,NNW,342,4.0,8.0,79,0.00,,,0.00,Wunderground v.1.15,2013-12-07 00:06:00,
2013-12-06 18:08:00,14.1,8.8,30.49,WNW,283,4.0,8.0,79,0.00,,,0.00,Wunderground v.1.15,2013-12-07 00:08:00,
2013-12-06 18:10:00,14.1,8.8,30.49,WNW,300,4.0,8.0,79,0.00,,,0.00,Wunderground v.1.15,2013-12-07 00:10:00,
2013-12-06 18:14:00,14.0,8.7,30.50,NW,304,4.0,8.0,79,0.00,,,0.00,Wunderground v.1.15,2013-12-07 00:14:00,
2013-12-06 18:16:00,14.0,8.7,30.50,WNW,300,4.0,8.0,79,0.00,,,0.00,Wunderground v.1.15,2013-12-07 00:16:00,
2013-12-06 18:22:00,13.9,8.6,30.51,WNW,295,4.0,8.0,79,0.00,,,0.00,Wunderground v.1.15,2013-12-07 00:22:00,
2013-12-06 18:24:00,13.9,8.6,30.51,NW,309,4.0,8.0,79,0.00,,,0.00,Wunderground v.1.15,2013-12-07 00:24:00,
2013-12-06 18:30:00,13.8,8.5,30.51,NW,320,4.0,4.0,79,0.00,,,0.00,Wunderground v.1.15,2013-12-07 00:30:00,
2013-12-06 18:32:00,13.8,8.5,30.51,NW,309,4.0,8.0,79,0.00,,,0.00,Wunderground v.1.15,2013-12-07 00:32:00,
2013-12-06 18:36:00,13.7,8.7,30.51,NW,321,4.0,8.0,80,0.00,,,0.00,Wunderground v.1.15,2013-12-07 00:36:00,
2013-12-06 18:38:00,13.6,8.6,30.51,WNW,302,4.0,8.0,80,0.00,,,0.00,Wunderground v.1.15,2013-12-07 00:38:00,
2013-12-06 18:42:00,13.5,8.5,30.51,NW,304,4.0,8.0,80,0.00,,,0.00,Wunderground v.1.15,2013-12-07 00:42:00,
2013-12-06 18:44:00,13.5,8.5,30.52,WNW,294,4.0,8.0,80,0.00,,,0.00,Wunderground v.1.15,2013-12-07 00:44:00,
2013-12-06 18:46:00,13.5,8.5,30.52,WNW,302,4.0,8.0,80,0.00,,,0.00,Wunderground v.1.15,2013-12-07 00:46:00,
2013-12-06 18:48:00,13.4,8.4,30.52,WNW,302,4.0,8.0,80,0.00,,,0.00,Wunderground v.1.15,2013-12-07 00:48:00,
2013-12-06 18:52:00,13.4,8.4,30.52,NW,309,4.0,8.0,80,0.00,,,0.00,Wunderground v.1.15,2013-12-07 00:52:00,
2013-12-06 18:54:00,13.4,8.4,30.52,NW,304,4.0,8.0,80,0.00,,,0.00,Wunderground v.1.15,2013-12-07 00:54:00,
2013-12-06 18:58:00,13.3,8.3,30.52,NW,305,4.0,8.0,80,0.00,,,0.00,Wunderground v.1.15,2013-12-07 00:58:00,
2013-12-06 19:00:00,13.3,8.3,30.52,WNW,293,4.0,4.0,80,0.00,,,0.00,Wunderground v.1.15,2013-12-07 01:00:00,
2013-12-06 19:02:00,13.2,8.2,30.52,NW,315,4.0,5.0,80,0.00,,,0.00,Wunderground v.1.15,2013-12-07 01:02:00,
2013-12-06 19:04:00,13.3,8.3,30.52,WNW,300,4.0,8.0,80,0.00,,,0.00,Wunderground v.1.15,2013-12-07 01:04:00,
2013-12-06 19:06:00,13.3,8.3,30.52,WNW,300,4.0,8.0,80,0.00,,,0.00,Wunderground v.1.15,2013-12-07 01:06:00,
2013-12-06 19:10:00,13.2,8.2,30.52,WNW,298,4.0,8.0,80,0.00,,,0.00,Wunderground v.1.15,2013-12-07 01:10:00,
2013-12-06 19:12:00,13.2,8.2,30.53,WNW,287,4.0,8.0,80,0.00,,,0.00,Wunderground v.1.15,2013-12-07 01:12:00,
2013-12-06 19:16:00,13.2,8.2,30.53,WNW,287,4.0,8.0,80,0.00,,,0.00,Wunderground v.1.15,2013-12-07 01:16:00,
2013-12-06 19:18:00,13.1,8.1,30.53,WNW,300,3.0,8.0,80,0.00,,,0.00,Wunderground v.1.15,2013-12-07 01:18:00,
2013-12-06 19:20:00,13.1,8.1,30.53,WNW,295,4.0,4.0,80,0.00,,,0.00,Wunderground v.1.15,2013-12-07 01:20:00,
2013-12-06 19:22:00,13.0,8.0,30.53,NW,305,4.0,8.0,80,0.00,,,0.00,Wunderground v.1.15,2013-12-07 01:22:00,
2013-12-06 19:24:00,13.1,8.1,30.53,WNW,292,4.0,8.0,80,0.00,,,0.00,Wunderground v.1.15,2013-12-07 01:24:00,
2013-12-06 19:26:00,13.1,8.1,30.54,WNW,291,4.0,8.0,80,0.00,,,0.00,Wunderground v.1.15,2013-12-07 01:26:00,
2013-12-06 19:28:00,13.1,8.1,30.54,West,274,4.0,8.0,80,0.00,,,0.00,Wunderground v.1.15,2013-12-07 01:28:00,
2013-12-06 19:34:00,13.1,7.8,30.53,WNW,295,5.0,8.0,79,0.00,,,0.00,Wunderground v.1.15,2013-12-07 01:34:00,
2013-12-06 19:36:00,13.1,8.1,30.54,NW,307,5.0,8.0,80,0.00,,,0.00,Wunderground v.1.15,2013-12-07 01:36:00,
2013-12-06 19:40:00,13.1,7.8,30.54,NW,315,5.0,5.0,79,0.00,,,0.00,Wunderground v.1.15,2013-12-07 01:40:00,
2013-12-06 19:42:00,13.1,7.8,30.54,WNW,302,5.0,8.0,79,0.00,,,0.00,Wunderground v.1.15,2013-12-07 01:42:00,
2013-12-06 19:44:00,13.1,7.8,30.54,WNW,294,5.0,8.0,79,0.00,,,0.00,Wunderground v.1.15,2013-12-07 01:44:00,
2013-12-06 19:46:00,13.1,7.8,30.54,NW,304,5.0,8.0,79,0.00,,,0.00,Wunderground v.1.15,2013-12-07 01:46:00,
2013-12-06 19:50:00,13.1,7.8,30.54,WNW,292,5.0,8.0,79,0.00,,,0.00,Wunderground v.1.15,2013-12-07 01:50:00,
2013-12-06 19:52:00,13.0,7.7,30.54,WNW,300,5.0,8.0,79,0.00,,,0.00,Wunderground v.1.15,2013-12-07 01:52:00,
2013-12-06 19:56:00,12.9,7.6,30.55,West,274,5.0,8.0,79,0.00,,,0.00,Wunderground v.1.15,2013-12-07 01:56:00,
2013-12-06 19:58:00,12.8,7.8,30.54,WNW,295,5.0,8.0,80,0.00,,,0.00,Wunderground v.1.15,2013-12-07 01:58:00,
2013-12-06 20:00:00,12.7,7.7,30.54,NW,323,4.0,8.0,80,0.00,,,0.00,Wunderground v.1.15,2013-12-07 02:00:00,
2013-12-06 20:04:00,12.5,7.5,30.54,NW,321,4.0,8.0,80,0.00,,,0.00,Wunderground v.1.15,2013-12-07 02:04:00,
2013-12-06 20:06:00,12.5,7.5,30.55,NW,314,4.0,8.0,80,0.00,,,0.00,Wunderground v.1.15,2013-12-07 02:06:00,
2013-12-06 20:10:00,12.4,7.4,30.55,NW,314,4.0,8.0,80,0.00,,,0.00,Wunderground v.1.15,2013-12-07 02:10:00,
2013-12-06 20:12:00,12.4,7.4,30.55,NW,304,4.0,8.0,80,0.00,,,0.00,Wunderground v.1.15,2013-12-07 02:12:00,
2013-12-06 20:14:00,12.3,7.3,30.55,NW,321,4.0,8.0,80,0.00,,,0.00,Wunderground v.1.15,2013-12-07 02:14:00,
2013-12-06 20:18:00,12.2,7.5,30.55,NNW,327,4.0,8.0,81,0.00,,,0.00,Wunderground v.1.15,2013-12-07 02:18:00,
2013-12-06 20:20:00,12.1,7.4,30.55,WNW,300,4.0,8.0,81,0.00,,,0.00,Wunderground v.1.15,2013-12-07 02:20:00,
2013-12-06 20:22:00,12.1,7.4,30.55,NNW,336,4.0,8.0,81,0.00,,,0.00,Wunderground v.1.15,2013-12-07 02:22:00,
2013-12-06 20:24:00,12.1,7.4,30.55,NW,304,4.0,8.0,81,0.00,,,0.00,Wunderground v.1.15,2013-12-07 02:24:00,
2013-12-06 20:26:00,12.1,7.4,30.56,NNW,338,4.0,8.0,81,0.00,,,0.00,Wunderground v.1.15,2013-12-07 02:26:00,
2013-12-06 20:28:00,12.1,7.4,30.56,NW,311,4.0,8.0,81,0.00,,,0.00,Wunderground v.1.15,2013-12-07 02:28:00,
2013-12-06 20:30:00,12.1,7.4,30.56,NW,316,5.0,8.0,81,0.00,,,0.00,Wunderground v.1.15,2013-12-07 02:30:00,
2013-12-06 20:32:00,12.1,7.4,30.56,WNW,301,5.0,8.0,81,0.00,,,0.00,Wunderground v.1.15,2013-12-07 02:32:00,
2013-12-06 20:34:00,12.1,7.4,30.56,NW,323,5.0,9.0,81,0.00,,,0.00,Wunderground v.1.15,2013-12-07 02:34:00,
2013-12-06 20:38:00,12.1,7.4,30.56,NW,309,6.0,9.0,81,0.00,,,0.00,Wunderground v.1.15,2013-12-07 02:38:00,
2013-12-06 20:40:00,12.2,7.5,30.56,NW,314,6.0,6.0,81,0.00,,,0.00,Wunderground v.1.15,2013-12-07 02:40:00,
2013-12-06 20:42:00,12.1,7.4,30.56,NW,314,6.0,8.0,81,0.00,,,0.00,Wunderground v.1.15,2013-12-07 02:42:00,
2013-12-06 20:46:00,12.1,7.4,30.56,WNW,302,5.0,8.0,81,0.00,,,0.00,Wunderground v.1.15,2013-12-07 02:46:00,
2013-12-06 20:48:00,12.0,7.3,30.56,NW,309,5.0,8.0,81,0.00,,,0.00,Wunderground v.1.15,2013-12-07 02:48:00,
2013-12-06 20:52:00,11.9,7.2,30.56,NNW,333,5.0,8.0,81,0.00,,,0.00,Wunderground v.1.15,2013-12-07 02:52:00,
2013-12-06 20:56:00,11.8,7.1,30.56,NNW,331,5.0,8.0,81,0.00,,,0.00,Wunderground v.1.15,2013-12-07 02:56:00,
2013-12-06 20:58:00,11.8,7.1,30.57,NW,321,5.0,8.0,81,0.00,,,0.00,Wunderground v.1.15,2013-12-07 02:58:00,
2013-12-06 21:00:00,11.8,7.1,30.56,NW,317,5.0,8.0,81,0.00,,,0.00,Wunderground v.1.15,2013-12-07 03:00:00,
2013-12-06 21:04:00,11.8,7.1,30.56,NW,326,5.0,9.0,81,0.00,,,0.00,Wunderground v.1.15,2013-12-07 03:04:00,
2013-12-06 21:06:00,11.7,7.0,30.57,NW,323,5.0,9.0,81,0.00,,,0.00,Wunderground v.1.15,2013-12-07 03:06:00,
2013-12-06 21:08:00,11.8,7.1,30.57,NW,318,5.0,9.0,81,0.00,,,0.00,Wunderground v.1.15,2013-12-07 03:08:00,
2013-12-06 21:10:00,11.8,7.1,30.57,NW,304,6.0,8.0,81,0.00,,,0.00,Wunderground v.1.15,2013-12-07 03:10:00,
2013-12-06 21:12:00,11.7,7.0,30.57,NW,307,6.0,8.0,81,0.00,,,0.00,Wunderground v.1.15,2013-12-07 03:12:00,
2013-12-06 21:14:00,11.8,6.8,30.57,NW,313,6.0,8.0,80,0.00,,,0.00,Wunderground v.1.15,2013-12-07 03:14:00,
2013-12-06 21:18:00,11.8,6.8,30.57,NW,317,6.0,8.0,80,0.00,,,0.00,Wunderground v.1.15,2013-12-07 03:18:00,
2013-12-06 21:20:00,11.8,6.8,30.57,NW,315,6.0,8.0,80,0.00,,,0.00,Wunderground v.1.15,2013-12-07 03:20:00,
2013-12-06 21:22:00,11.8,6.8,30.57,NNW,331,6.0,8.0,80,0.00,,,0.00,Wunderground v.1.15,2013-12-07 03:22:00,
2013-12-06 21:26:00,11.8,6.8,30.57,NW,316,7.0,8.0,80,0.00,,,0.00,Wunderground v.1.15,2013-12-07 03:26:00,
2013-12-06 21:28:00,11.8,6.5,30.57,NNW,329,7.0,8.0,79,0.00,,,0.00,Wunderground v.1.15,2013-12-07 03:28:00,
2013-12-06 21:32:00,11.7,6.7,30.57,West,271,7.0,8.0,80,0.00,,,0.00,Wunderground v.1.15,2013-12-07 03:32:00,
2013-12-06 21:34:00,11.7,6.7,30.58,NW,326,7.0,8.0,80,0.00,,,0.00,Wunderground v.1.15,2013-12-07 03:34:00,
2013-12-06 21:36:00,11.7,6.7,30.57,WNW,293,6.0,8.0,80,0.00,,,0.00,Wunderground v.1.15,2013-12-07 03:36:00,
2013-12-06 21:40:00,11.5,6.5,30.58,NW,315,6.0,6.0,80,0.00,,,0.00,Wunderground v.1.15,2013-12-07 03:40:00,
2013-12-06 21:42:00,11.5,6.5,30.58,NNW,330,5.0,8.0,80,0.00,,,0.00,Wunderground v.1.15,2013-12-07 03:42:00,
2013-12-06 21:46:00,11.5,6.5,30.58,NW,316,6.0,8.0,80,0.00,,,0.00,Wunderground v.1.15,2013-12-07 03:46:00,
2013-12-06 21:48:00,11.5,6.5,30.58,NW,309,6.0,8.0,80,0.00,,,0.00,Wunderground v.1.15,2013-12-07 03:48:00,
2013-12-06 21:50:00,11.4,6.4,30.58,NNW,327,6.0,8.0,80,0.00,,,0.00,Wunderground v.1.15,2013-12-07 03:50:00,
2013-12-06 21:54:00,11.3,6.3,30.58,NW,306,6.0,8.0,80,0.00,,,0.00,Wunderground v.1.15,2013-12-07 03:54:00,
2013-12-06 21:56:00,11.3,6.3,30.58,NW,315,6.0,8.0,80,0.00,,,0.00,Wunderground v.1.15,2013-12-07 03:56:00,
2013-12-06 22:02:00,11.2,6.2,30.59,WNW,298,6.0,8.0,80,0.00,,,0.00,Wunderground v.1.15,2013-12-07 04:02:00,
2013-12-06 22:04:00,11.2,6.2,30.59,NNW,330,5.0,8.0,80,0.00,,,0.00,Wunderground v.1.15,2013-12-07 04:04:00,
2013-12-06 22:06:00,11.1,6.1,30.59,NW,311,5.0,8.0,80,0.00,,,0.00,Wunderground v.1.15,2013-12-07 04:06:00,
2013-12-06 22:08:00,11.1,6.1,30.59,NW,309,5.0,8.0,80,0.00,,,0.00,Wunderground v.1.15,2013-12-07 04:08:00,
2013-12-06 22:10:00,11.0,6.0,30.60,NNW,328,5.0,8.0,80,0.00,,,0.00,Wunderground v.1.15,2013-12-07 04:10:00,
2013-12-06 22:16:00,11.0,6.0,30.60,WNW,291,5.0,8.0,80,0.00,,,0.00,Wunderground v.1.15,2013-12-07 04:16:00,
2013-12-06 22:18:00,11.0,6.0,30.60,NNW,337,5.0,8.0,80,0.00,,,0.00,Wunderground v.1.15,2013-12-07 04:18:00,
2013-12-06 22:20:00,11.0,6.0,30.60,NW,304,5.0,8.0,80,0.00,,,0.00,Wunderground v.1.15,2013-12-07 04:20:00,
2013-12-06 22:24:00,11.0,6.0,30.60,NW,325,5.0,8.0,80,0.00,,,0.00,Wunderground v.1.15,2013-12-07 04:24:00,
2013-12-06 22:26:00,10.9,5.9,30.60,NW,318,5.0,8.0,80,0.00,,,0.00,Wunderground v.1.15,2013-12-07 04:26:00,
2013-12-06 22:30:00,10.9,5.9,30.60,NW,312,5.0,5.0,80,0.00,,,0.00,Wunderground v.1.15,2013-12-07 04:30:00,
2013-12-06 22:32:00,10.8,5.8,30.60,NW,307,5.0,8.0,80,0.00,,,0.00,Wunderground v.1.15,2013-12-07 04:32:00,
2013-12-06 22:36:00,10.7,5.7,30.61,NW,315,4.0,8.0,80,0.00,,,0.00,Wunderground v.1.15,2013-12-07 04:36:00,
2013-12-06 22:42:00,10.6,5.9,30.61,NW,325,4.0,8.0,81,0.00,,,0.00,Wunderground v.1.15,2013-12-07 04:42:00,
2013-12-06 22:46:00,10.4,5.7,30.61,NW,315,4.0,8.0,81,0.00,,,0.00,Wunderground v.1.15,2013-12-07 04:46:00,
2013-12-06 22:50:00,10.4,5.7,30.61,NW,315,4.0,8.0,81,0.00,,,0.00,Wunderground v.1.15,2013-12-07 04:50:00,
2013-12-06 22:52:00,10.4,5.7,30.61,NW,309,4.0,8.0,81,0.00,,,0.00,Wunderground v.1.15,2013-12-07 04:52:00,
2013-12-06 22:54:00,10.4,5.7,30.61,WNW,294,5.0,8.0,81,0.00,,,0.00,Wunderground v.1.15,2013-12-07 04:54:00,
2013-12-06 22:58:00,10.4,5.7,30.61,NW,315,5.0,8.0,81,0.00,,,0.00,Wunderground v.1.15,2013-12-07 04:58:00,
2013-12-06 23:00:00,10.3,5.6,30.62,NW,315,4.0,4.0,81,0.00,,,0.00,Wunderground v.1.15,2013-12-07 05:00:00,
2013-12-06 23:02:00,10.3,5.6,30.62,NNW,329,4.0,8.0,81,0.00,,,0.00,Wunderground v.1.15,2013-12-07 05:02:00,
2013-12-06 23:04:00,10.2,5.8,30.62,NNW,338,4.0,8.0,82,0.00,,,0.00,Wunderground v.1.15,2013-12-07 05:04:00,
2013-12-06 23:06:00,10.2,5.8,30.62,NW,318,4.0,8.0,82,0.00,,,0.00,Wunderground v.1.15,2013-12-07 05:06:00,
2013-12-06 23:08:00,10.1,5.7,30.62,NW,311,3.0,8.0,82,0.00,,,0.00,Wunderground v.1.15,2013-12-07 05:08:00,
2013-12-06 23:10:00,10.0,5.6,30.62,NW,326,3.0,8.0,82,0.00,,,0.00,Wunderground v.1.15,2013-12-07 05:10:00,
2013-12-06 23:14:00,10.0,5.6,30.62,NW,307,4.0,8.0,82,0.00,,,0.00,Wunderground v.1.15,2013-12-07 05:14:00,
2013-12-06 23:20:00,9.9,5.5,30.62,NW,315,4.0,8.0,82,0.00,,,0.00,Wunderground v.1.15,2013-12-07 05:20:00,
2013-12-06 23:22:00,9.9,5.5,30.63,NW,309,3.0,8.0,82,0.00,,,0.00,Wunderground v.1.15,2013-12-07 05:22:00,
2013-12-06 23:24:00,9.8,5.4,30.63,NW,315,3.0,8.0,82,0.00,,,0.00,Wunderground v.1.15,2013-12-07 05:24:00,
2013-12-06 23:26:00,9.8,5.4,30.62,NW,309,3.0,8.0,82,0.00,,,0.00,Wunderground v.1.15,2013-12-07 05:26:00,
2013-12-06 23:30:00,9.8,5.4,30.63,NW,315,3.0,8.0,82,0.00,,,0.00,Wunderground v.1.15,2013-12-07 05:30:00,
2013-12-06 23:32:00,9.7,5.3,30.63,NW,326,3.0,8.0,82,0.00,,,0.00,Wunderground v.1.15,2013-12-07 05:32:00,
2013-12-06 23:34:00,9.7,5.3,30.63,NNW,327,3.0,8.0,82,0.00,,,0.00,Wunderground v.1.15,2013-12-07 05:34:00,
2013-12-06 23:36:00,9.6,5.2,30.63,NW,318,3.0,8.0,82,0.00,,,0.00,Wunderground v.1.15,2013-12-07 05:36:00,
2013-12-06 23:40:00,9.6,5.2,30.63,NW,314,3.0,3.0,82,0.00,,,0.00,Wunderground v.1.15,2013-12-07 05:40:00,
2013-12-06 23:42:00,9.6,5.2,30.63,NW,314,3.0,8.0,82,0.00,,,0.00,Wunderground v.1.15,2013-12-07 05:42:00,
2013-12-06 23:44:00,9.5,5.1,30.63,NW,321,3.0,8.0,82,0.00,,,0.00,Wunderground v.1.15,2013-12-07 05:44:00,
2013-12-06 23:46:00,9.5,5.1,30.63,NW,307,3.0,8.0,82,0.00,,,0.00,Wunderground v.1.15,2013-12-07 05:46:00,
2013-12-06 23:50:00,9.4,5.0,30.63,NW,314,3.0,3.0,82,0.00,,,0.00,Wunderground v.1.15,2013-12-07 05:50:00,
2013-12-06 23:52:00,9.4,5.0,30.63,NNW,327,3.0,8.0,82,0.00,,,0.00,Wunderground v.1.15,2013-12-07 05:52:00,
2013-12-06 23:54:00,9.4,5.3,30.63,NW,321,3.0,8.0,83,0.00,,,0.00,Wunderground v.1.15,2013-12-07 05:54:00,
2013-12-06 23:56:00,9.3,5.2,30.63,NW,309,2.0,8.0,83,0.00,,,0.00,Wunderground v.1.15,2013-12-07 05:56:00,
2013-12-06 23:58:00,9.4,5.3,30.63,WNW,298,2.0,8.0,83,0.00,,,0.00,Wunderground v.1.15,2013-12-07 05:58:00,